<?xml version="1.0" encoding="UTF-8" standalone="no" ?>
<gpx xmlns="http://www.topografix.com/GPX/1/1" xmlns:xsi="http://www.w3.org/2001/XMLSchema-instance" xsi:schemaLocation="http://www.topografix.com/GPX/1/1 http://www.topografix.com/GPX/1/1/gpx.xsd" version="1.1" creator="VisuGPX - https://www.visugpx.com">
  <metadata>
    <name>Autour de PEDERNEC</name>
    <desc><![CDATA[Circuit au départ de la salle des Fêtes de PEDERNEC. Sans difficultés]]></desc>
  </metadata>
  <trk>
    <name><![CDATA[Annick - Serge]]></name>
    <trkseg>
      <trkpt lat="48.59631" lon="-3.26998">
        <ele>128.9</ele>
        <time>2017-03-23T12:45:29Z</time>
      </trkpt>
      <trkpt lat="48.59603" lon="-3.2691">
        <ele>125</ele>
        <time>2017-03-23T12:45:29Z</time>
      </trkpt>
      <trkpt lat="48.59583" lon="-3.26844">
        <ele>120.8</ele>
        <time>2017-03-23T12:45:29Z</time>
      </trkpt>
      <trkpt lat="48.59569" lon="-3.26776">
        <ele>119.4</ele>
        <time>2017-03-23T12:45:29Z</time>
      </trkpt>
      <trkpt lat="48.59547" lon="-3.26715">
        <ele>119</ele>
        <time>2017-03-23T12:45:29Z</time>
      </trkpt>
      <trkpt lat="48.59508" lon="-3.26676">
        <ele>120.4</ele>
        <time>2017-03-23T12:45:29Z</time>
      </trkpt>
      <trkpt lat="48.59464" lon="-3.26675">
        <ele>121</ele>
        <time>2017-03-23T12:45:29Z</time>
      </trkpt>
      <trkpt lat="48.59421" lon="-3.26687">
        <ele>122.2</ele>
        <time>2017-03-23T12:45:29Z</time>
      </trkpt>
      <trkpt lat="48.59376" lon="-3.26709">
        <ele>122.3</ele>
        <time>2017-03-23T12:45:29Z</time>
      </trkpt>
      <trkpt lat="48.59337" lon="-3.26751">
        <ele>121.7</ele>
        <time>2017-03-23T12:45:29Z</time>
      </trkpt>
      <trkpt lat="48.59318" lon="-3.26825">
        <ele>123.8</ele>
        <time>2017-03-23T12:45:29Z</time>
      </trkpt>
      <trkpt lat="48.59299" lon="-3.26884">
        <ele>123.5</ele>
        <time>2017-03-23T12:45:29Z</time>
      </trkpt>
      <trkpt lat="48.59268" lon="-3.26929">
        <ele>124.6</ele>
        <time>2017-03-23T12:45:29Z</time>
      </trkpt>
      <trkpt lat="48.5924" lon="-3.26984">
        <ele>124.2</ele>
        <time>2017-03-23T12:45:29Z</time>
      </trkpt>
      <trkpt lat="48.59208" lon="-3.27042">
        <ele>124.3</ele>
        <time>2017-03-23T12:45:29Z</time>
      </trkpt>
      <trkpt lat="48.5917" lon="-3.27085">
        <ele>125</ele>
        <time>2017-03-23T12:45:29Z</time>
      </trkpt>
      <trkpt lat="48.59146" lon="-3.27033">
        <ele>131.1</ele>
        <time>2017-03-23T12:45:29Z</time>
      </trkpt>
      <trkpt lat="48.59153" lon="-3.26966">
        <ele>133.1</ele>
        <time>2017-03-23T12:45:29Z</time>
      </trkpt>
      <trkpt lat="48.59179" lon="-3.26908">
        <ele>133.7</ele>
        <time>2017-03-23T12:45:29Z</time>
      </trkpt>
      <trkpt lat="48.59181" lon="-3.26838">
        <ele>134.5</ele>
        <time>2017-03-23T12:45:29Z</time>
      </trkpt>
      <trkpt lat="48.59167" lon="-3.26767">
        <ele>133.6</ele>
        <time>2017-03-23T12:45:29Z</time>
      </trkpt>
      <trkpt lat="48.59147" lon="-3.26707">
        <ele>132.3</ele>
        <time>2017-03-23T12:45:29Z</time>
      </trkpt>
      <trkpt lat="48.59104" lon="-3.26695">
        <ele>133</ele>
        <time>2017-03-23T12:45:29Z</time>
      </trkpt>
      <trkpt lat="48.59065" lon="-3.26709">
        <ele>133.8</ele>
        <time>2017-03-23T12:45:29Z</time>
      </trkpt>
      <trkpt lat="48.59022" lon="-3.26727">
        <ele>134</ele>
        <time>2017-03-23T12:45:29Z</time>
      </trkpt>
      <trkpt lat="48.58978" lon="-3.26724">
        <ele>133.9</ele>
        <time>2017-03-23T12:45:29Z</time>
      </trkpt>
      <trkpt lat="48.58933" lon="-3.26688">
        <ele>134.6</ele>
        <time>2017-03-23T12:45:29Z</time>
      </trkpt>
      <trkpt lat="48.58891" lon="-3.26655">
        <ele>135.9</ele>
        <time>2017-03-23T12:45:29Z</time>
      </trkpt>
      <trkpt lat="48.58849" lon="-3.2663">
        <ele>136.8</ele>
        <time>2017-03-23T12:45:29Z</time>
      </trkpt>
      <trkpt lat="48.58809" lon="-3.266">
        <ele>138</ele>
        <time>2017-03-23T12:45:29Z</time>
      </trkpt>
      <trkpt lat="48.58781" lon="-3.26556">
        <ele>138</ele>
        <time>2017-03-23T12:45:29Z</time>
      </trkpt>
      <trkpt lat="48.58739" lon="-3.26543">
        <ele>139.2</ele>
        <time>2017-03-23T12:45:29Z</time>
      </trkpt>
      <trkpt lat="48.58691" lon="-3.26532">
        <ele>139.2</ele>
        <time>2017-03-23T12:45:29Z</time>
      </trkpt>
      <trkpt lat="48.58646" lon="-3.26522">
        <ele>139.6</ele>
        <time>2017-03-23T12:45:29Z</time>
      </trkpt>
      <trkpt lat="48.58603" lon="-3.26524">
        <ele>140.1</ele>
        <time>2017-03-23T12:45:29Z</time>
      </trkpt>
      <trkpt lat="48.58598" lon="-3.26595">
        <ele>141.7</ele>
        <time>2017-03-23T12:45:29Z</time>
      </trkpt>
      <trkpt lat="48.5858" lon="-3.2667">
        <ele>144.1</ele>
        <time>2017-03-23T12:45:29Z</time>
      </trkpt>
      <trkpt lat="48.58556" lon="-3.26734">
        <ele>145.4</ele>
        <time>2017-03-23T12:45:29Z</time>
      </trkpt>
      <trkpt lat="48.5853" lon="-3.26789">
        <ele>147.4</ele>
        <time>2017-03-23T12:45:29Z</time>
      </trkpt>
      <trkpt lat="48.58512" lon="-3.26854">
        <ele>149.4</ele>
        <time>2017-03-23T12:45:29Z</time>
      </trkpt>
      <trkpt lat="48.58492" lon="-3.26915">
        <ele>151</ele>
        <time>2017-03-23T12:45:29Z</time>
      </trkpt>
      <trkpt lat="48.58464" lon="-3.26965">
        <ele>152</ele>
        <time>2017-03-23T12:45:29Z</time>
      </trkpt>
      <trkpt lat="48.5842" lon="-3.26943">
        <ele>152</ele>
        <time>2017-03-23T12:45:29Z</time>
      </trkpt>
      <trkpt lat="48.5838" lon="-3.26921">
        <ele>152</ele>
        <time>2017-03-23T12:45:29Z</time>
      </trkpt>
      <trkpt lat="48.5834" lon="-3.26963">
        <ele>152</ele>
        <time>2017-03-23T12:45:29Z</time>
      </trkpt>
      <trkpt lat="48.58309" lon="-3.27008">
        <ele>152</ele>
        <time>2017-03-23T12:45:29Z</time>
      </trkpt>
      <trkpt lat="48.58277" lon="-3.27053">
        <ele>152</ele>
        <time>2017-03-23T12:45:29Z</time>
      </trkpt>
      <trkpt lat="48.58246" lon="-3.27108">
        <ele>152</ele>
        <time>2017-03-23T12:45:29Z</time>
      </trkpt>
      <trkpt lat="48.58227" lon="-3.27178">
        <ele>153.1</ele>
        <time>2017-03-23T12:45:29Z</time>
      </trkpt>
      <trkpt lat="48.58231" lon="-3.2725">
        <ele>155</ele>
        <time>2017-03-23T12:45:29Z</time>
      </trkpt>
      <trkpt lat="48.58248" lon="-3.27321">
        <ele>156.6</ele>
        <time>2017-03-23T12:45:29Z</time>
      </trkpt>
      <trkpt lat="48.58273" lon="-3.2739">
        <ele>157</ele>
        <time>2017-03-23T12:45:29Z</time>
      </trkpt>
      <trkpt lat="48.58255" lon="-3.2745">
        <ele>156.2</ele>
        <time>2017-03-23T12:45:29Z</time>
      </trkpt>
      <trkpt lat="48.5822" lon="-3.27501">
        <ele>155.9</ele>
        <time>2017-03-23T12:45:29Z</time>
      </trkpt>
      <trkpt lat="48.58237" lon="-3.27558">
        <ele>155</ele>
        <time>2017-03-23T12:45:29Z</time>
      </trkpt>
      <trkpt lat="48.5828" lon="-3.27583">
        <ele>157</ele>
        <time>2017-03-23T12:45:29Z</time>
      </trkpt>
      <trkpt lat="48.58324" lon="-3.27605">
        <ele>156.5</ele>
        <time>2017-03-23T12:45:29Z</time>
      </trkpt>
      <trkpt lat="48.58367" lon="-3.27639">
        <ele>156</ele>
        <time>2017-03-23T12:45:29Z</time>
      </trkpt>
      <trkpt lat="48.58407" lon="-3.27664">
        <ele>155.4</ele>
        <time>2017-03-23T12:45:29Z</time>
      </trkpt>
      <trkpt lat="48.58423" lon="-3.27731">
        <ele>154.9</ele>
        <time>2017-03-23T12:45:29Z</time>
      </trkpt>
      <trkpt lat="48.58447" lon="-3.27786">
        <ele>153.6</ele>
        <time>2017-03-23T12:45:29Z</time>
      </trkpt>
      <trkpt lat="48.58463" lon="-3.27852">
        <ele>150.2</ele>
        <time>2017-03-23T12:45:29Z</time>
      </trkpt>
      <trkpt lat="48.58473" lon="-3.27932">
        <ele>146</ele>
        <time>2017-03-23T12:45:29Z</time>
      </trkpt>
      <trkpt lat="48.58497" lon="-3.27991">
        <ele>144</ele>
        <time>2017-03-23T12:45:29Z</time>
      </trkpt>
      <trkpt lat="48.58516" lon="-3.28013">
        <ele>142.7</ele>
        <time>2017-03-23T12:45:29Z</time>
      </trkpt>
      <trkpt lat="48.58552" lon="-3.28061">
        <ele>138.7</ele>
        <time>2017-03-23T12:45:29Z</time>
      </trkpt>
      <trkpt lat="48.58587" lon="-3.28095">
        <ele>137</ele>
        <time>2017-03-23T12:45:29Z</time>
      </trkpt>
      <trkpt lat="48.58633" lon="-3.28094">
        <ele>136.7</ele>
        <time>2017-03-23T12:45:29Z</time>
      </trkpt>
      <trkpt lat="48.58683" lon="-3.28093">
        <ele>136.5</ele>
        <time>2017-03-23T12:45:29Z</time>
      </trkpt>
      <trkpt lat="48.58725" lon="-3.28106">
        <ele>137</ele>
        <time>2017-03-23T12:45:29Z</time>
      </trkpt>
      <trkpt lat="48.58769" lon="-3.28127">
        <ele>138.4</ele>
        <time>2017-03-23T12:45:29Z</time>
      </trkpt>
      <trkpt lat="48.58817" lon="-3.28132">
        <ele>139.3</ele>
        <time>2017-03-23T12:45:29Z</time>
      </trkpt>
      <trkpt lat="48.5886" lon="-3.28121">
        <ele>140</ele>
        <time>2017-03-23T12:45:29Z</time>
      </trkpt>
      <trkpt lat="48.58894" lon="-3.28096">
        <ele>140.5</ele>
        <time>2017-03-23T12:45:29Z</time>
      </trkpt>
      <trkpt lat="48.58945" lon="-3.28106">
        <ele>140.8</ele>
        <time>2017-03-23T12:45:29Z</time>
      </trkpt>
      <trkpt lat="48.58985" lon="-3.28122">
        <ele>141</ele>
        <time>2017-03-23T12:45:29Z</time>
      </trkpt>
      <trkpt lat="48.59025" lon="-3.28139">
        <ele>141</ele>
        <time>2017-03-23T12:45:29Z</time>
      </trkpt>
      <trkpt lat="48.59063" lon="-3.28186">
        <ele>140.7</ele>
        <time>2017-03-23T12:45:29Z</time>
      </trkpt>
      <trkpt lat="48.59106" lon="-3.28211">
        <ele>139.8</ele>
        <time>2017-03-23T12:45:29Z</time>
      </trkpt>
      <trkpt lat="48.59144" lon="-3.2823">
        <ele>137.1</ele>
        <time>2017-03-23T12:45:29Z</time>
      </trkpt>
      <trkpt lat="48.59187" lon="-3.28237">
        <ele>136.7</ele>
        <time>2017-03-23T12:45:29Z</time>
      </trkpt>
      <trkpt lat="48.59231" lon="-3.28252">
        <ele>139.4</ele>
        <time>2017-03-23T12:45:29Z</time>
      </trkpt>
      <trkpt lat="48.59269" lon="-3.28279">
        <ele>141.7</ele>
        <time>2017-03-23T12:45:29Z</time>
      </trkpt>
      <trkpt lat="48.59307" lon="-3.28298">
        <ele>143.7</ele>
        <time>2017-03-23T12:45:29Z</time>
      </trkpt>
      <trkpt lat="48.59347" lon="-3.28317">
        <ele>145</ele>
        <time>2017-03-23T12:45:29Z</time>
      </trkpt>
      <trkpt lat="48.59345" lon="-3.28249">
        <ele>144.4</ele>
        <time>2017-03-23T12:45:29Z</time>
      </trkpt>
      <trkpt lat="48.59359" lon="-3.28209">
        <ele>144.4</ele>
        <time>2017-03-23T12:45:29Z</time>
      </trkpt>
      <trkpt lat="48.59404" lon="-3.28213">
        <ele>145.7</ele>
        <time>2017-03-23T12:45:29Z</time>
      </trkpt>
      <trkpt lat="48.59447" lon="-3.28216">
        <ele>147</ele>
        <time>2017-03-23T12:45:29Z</time>
      </trkpt>
      <trkpt lat="48.59491" lon="-3.28202">
        <ele>146.5</ele>
        <time>2017-03-23T12:45:29Z</time>
      </trkpt>
      <trkpt lat="48.59509" lon="-3.28145">
        <ele>145.4</ele>
        <time>2017-03-23T12:45:29Z</time>
      </trkpt>
      <trkpt lat="48.59514" lon="-3.28077">
        <ele>143.2</ele>
        <time>2017-03-23T12:45:29Z</time>
      </trkpt>
      <trkpt lat="48.59545" lon="-3.28027">
        <ele>140</ele>
        <time>2017-03-23T12:45:29Z</time>
      </trkpt>
      <trkpt lat="48.59586" lon="-3.28026">
        <ele>141.2</ele>
        <time>2017-03-23T12:45:29Z</time>
      </trkpt>
      <trkpt lat="48.5963" lon="-3.28035">
        <ele>143.8</ele>
        <time>2017-03-23T12:45:29Z</time>
      </trkpt>
      <trkpt lat="48.59677" lon="-3.2804">
        <ele>146.4</ele>
        <time>2017-03-23T12:45:29Z</time>
      </trkpt>
      <trkpt lat="48.59721" lon="-3.28045">
        <ele>148</ele>
        <time>2017-03-23T12:45:29Z</time>
      </trkpt>
      <trkpt lat="48.59766" lon="-3.28053">
        <ele>149.6</ele>
        <time>2017-03-23T12:45:29Z</time>
      </trkpt>
      <trkpt lat="48.59812" lon="-3.28056">
        <ele>151</ele>
        <time>2017-03-23T12:45:29Z</time>
      </trkpt>
      <trkpt lat="48.59858" lon="-3.28052">
        <ele>150.9</ele>
        <time>2017-03-23T12:45:29Z</time>
      </trkpt>
      <trkpt lat="48.599" lon="-3.28053">
        <ele>149.9</ele>
        <time>2017-03-23T12:45:29Z</time>
      </trkpt>
      <trkpt lat="48.59946" lon="-3.2805">
        <ele>148.8</ele>
        <time>2017-03-23T12:45:29Z</time>
      </trkpt>
      <trkpt lat="48.59992" lon="-3.28035">
        <ele>148.1</ele>
        <time>2017-03-23T12:45:29Z</time>
      </trkpt>
      <trkpt lat="48.60034" lon="-3.28012">
        <ele>146.8</ele>
        <time>2017-03-23T12:45:29Z</time>
      </trkpt>
      <trkpt lat="48.60074" lon="-3.27992">
        <ele>145.3</ele>
        <time>2017-03-23T12:45:29Z</time>
      </trkpt>
      <trkpt lat="48.60118" lon="-3.27986">
        <ele>144.7</ele>
        <time>2017-03-23T12:45:29Z</time>
      </trkpt>
      <trkpt lat="48.60164" lon="-3.27976">
        <ele>144</ele>
        <time>2017-03-23T12:45:29Z</time>
      </trkpt>
      <trkpt lat="48.60202" lon="-3.27942">
        <ele>143</ele>
        <time>2017-03-23T12:45:29Z</time>
      </trkpt>
      <trkpt lat="48.60242" lon="-3.27919">
        <ele>143.7</ele>
        <time>2017-03-23T12:45:29Z</time>
      </trkpt>
      <trkpt lat="48.60284" lon="-3.27904">
        <ele>143.5</ele>
        <time>2017-03-23T12:45:29Z</time>
      </trkpt>
      <trkpt lat="48.60311" lon="-3.27865">
        <ele>143.1</ele>
        <time>2017-03-23T12:45:29Z</time>
      </trkpt>
      <trkpt lat="48.60269" lon="-3.27851">
        <ele>142.7</ele>
        <time>2017-03-23T12:45:29Z</time>
      </trkpt>
      <trkpt lat="48.60227" lon="-3.27841">
        <ele>142</ele>
        <time>2017-03-23T12:45:29Z</time>
      </trkpt>
      <trkpt lat="48.60188" lon="-3.27812">
        <ele>141.4</ele>
        <time>2017-03-23T12:45:29Z</time>
      </trkpt>
      <trkpt lat="48.60147" lon="-3.27792">
        <ele>142.2</ele>
        <time>2017-03-23T12:45:29Z</time>
      </trkpt>
      <trkpt lat="48.60109" lon="-3.27769">
        <ele>142.8</ele>
        <time>2017-03-23T12:45:29Z</time>
      </trkpt>
      <trkpt lat="48.60071" lon="-3.27747">
        <ele>143.4</ele>
        <time>2017-03-23T12:45:29Z</time>
      </trkpt>
      <trkpt lat="48.60032" lon="-3.27709">
        <ele>143.9</ele>
        <time>2017-03-23T12:45:29Z</time>
      </trkpt>
      <trkpt lat="48.59988" lon="-3.27685">
        <ele>144.4</ele>
        <time>2017-03-23T12:45:29Z</time>
      </trkpt>
      <trkpt lat="48.59945" lon="-3.27666">
        <ele>145</ele>
        <time>2017-03-23T12:45:29Z</time>
      </trkpt>
      <trkpt lat="48.59899" lon="-3.27642">
        <ele>144.1</ele>
        <time>2017-03-23T12:45:29Z</time>
      </trkpt>
      <trkpt lat="48.59852" lon="-3.27627">
        <ele>144.6</ele>
        <time>2017-03-23T12:45:29Z</time>
      </trkpt>
      <trkpt lat="48.59809" lon="-3.27622">
        <ele>144.4</ele>
        <time>2017-03-23T12:45:29Z</time>
      </trkpt>
      <trkpt lat="48.59767" lon="-3.27615">
        <ele>144.1</ele>
        <time>2017-03-23T12:45:29Z</time>
      </trkpt>
      <trkpt lat="48.59721" lon="-3.27623">
        <ele>144.4</ele>
        <time>2017-03-23T12:45:29Z</time>
      </trkpt>
      <trkpt lat="48.59675" lon="-3.27647">
        <ele>145</ele>
        <time>2017-03-23T12:45:29Z</time>
      </trkpt>
      <trkpt lat="48.59633" lon="-3.27675">
        <ele>144.8</ele>
        <time>2017-03-23T12:45:29Z</time>
      </trkpt>
      <trkpt lat="48.59614" lon="-3.27695">
        <ele>144.1</ele>
        <time>2017-03-23T12:45:29Z</time>
      </trkpt>
      <trkpt lat="48.59574" lon="-3.27726">
        <ele>141.9</ele>
        <time>2017-03-23T12:45:29Z</time>
      </trkpt>
      <trkpt lat="48.59535" lon="-3.27752">
        <ele>138.5</ele>
        <time>2017-03-23T12:45:29Z</time>
      </trkpt>
      <trkpt lat="48.59494" lon="-3.27775">
        <ele>134.8</ele>
        <time>2017-03-23T12:45:29Z</time>
      </trkpt>
      <trkpt lat="48.59457" lon="-3.27734">
        <ele>134.2</ele>
        <time>2017-03-23T12:45:29Z</time>
      </trkpt>
      <trkpt lat="48.59419" lon="-3.27704">
        <ele>132.1</ele>
        <time>2017-03-23T12:45:29Z</time>
      </trkpt>
      <trkpt lat="48.59383" lon="-3.27666">
        <ele>129.8</ele>
        <time>2017-03-23T12:45:29Z</time>
      </trkpt>
      <trkpt lat="48.59343" lon="-3.27635">
        <ele>128.8</ele>
        <time>2017-03-23T12:45:29Z</time>
      </trkpt>
      <trkpt lat="48.59304" lon="-3.27613">
        <ele>127</ele>
        <time>2017-03-23T12:45:29Z</time>
      </trkpt>
      <trkpt lat="48.59292" lon="-3.27637">
        <ele>127</ele>
        <time>2017-03-23T12:45:29Z</time>
      </trkpt>
      <trkpt lat="48.59269" lon="-3.27693">
        <ele>128</ele>
        <time>2017-03-23T12:45:29Z</time>
      </trkpt>
      <trkpt lat="48.59261" lon="-3.27751">
        <ele>129</ele>
        <time>2017-03-23T12:45:29Z</time>
      </trkpt>
      <trkpt lat="48.59228" lon="-3.27716">
        <ele>129</ele>
        <time>2017-03-23T12:45:29Z</time>
      </trkpt>
      <trkpt lat="48.59251" lon="-3.27685">
        <ele>128</ele>
        <time>2017-03-23T12:45:29Z</time>
      </trkpt>
      <trkpt lat="48.59285" lon="-3.27646">
        <ele>127.1</ele>
        <time>2017-03-23T12:45:29Z</time>
      </trkpt>
      <trkpt lat="48.59316" lon="-3.27591">
        <ele>128.5</ele>
        <time>2017-03-23T12:45:29Z</time>
      </trkpt>
      <trkpt lat="48.59342" lon="-3.27533">
        <ele>130.5</ele>
        <time>2017-03-23T12:45:29Z</time>
      </trkpt>
      <trkpt lat="48.59344" lon="-3.27464">
        <ele>131.4</ele>
        <time>2017-03-23T12:45:29Z</time>
      </trkpt>
      <trkpt lat="48.59337" lon="-3.27398">
        <ele>132.1</ele>
        <time>2017-03-23T12:45:29Z</time>
      </trkpt>
      <trkpt lat="48.59334" lon="-3.2733">
        <ele>131.1</ele>
        <time>2017-03-23T12:45:29Z</time>
      </trkpt>
      <trkpt lat="48.59341" lon="-3.27266">
        <ele>131.1</ele>
        <time>2017-03-23T12:45:29Z</time>
      </trkpt>
      <trkpt lat="48.59378" lon="-3.27238">
        <ele>132.8</ele>
        <time>2017-03-23T12:45:29Z</time>
      </trkpt>
      <trkpt lat="48.59421" lon="-3.27247">
        <ele>134</ele>
        <time>2017-03-23T12:45:29Z</time>
      </trkpt>
      <trkpt lat="48.59465" lon="-3.27231">
        <ele>133.5</ele>
        <time>2017-03-23T12:45:29Z</time>
      </trkpt>
      <trkpt lat="48.59509" lon="-3.27209">
        <ele>133.8</ele>
        <time>2017-03-23T12:45:29Z</time>
      </trkpt>
      <trkpt lat="48.59531" lon="-3.27156">
        <ele>133.1</ele>
        <time>2017-03-23T12:45:29Z</time>
      </trkpt>
      <trkpt lat="48.59528" lon="-3.27082">
        <ele>130</ele>
        <time>2017-03-23T12:45:29Z</time>
      </trkpt>
      <trkpt lat="48.59526" lon="-3.27008">
        <ele>127.6</ele>
        <time>2017-03-23T12:45:29Z</time>
      </trkpt>
      <trkpt lat="48.5954" lon="-3.26993">
        <ele>127.2</ele>
        <time>2017-03-23T12:45:29Z</time>
      </trkpt>
      <trkpt lat="48.59542" lon="-3.26994">
        <ele>127.3</ele>
        <time>2017-03-23T12:45:29Z</time>
      </trkpt>
      <trkpt lat="48.59544" lon="-3.26995">
        <ele>127.4</ele>
        <time>2017-03-23T12:45:29Z</time>
      </trkpt>
      <trkpt lat="48.59546" lon="-3.26996">
        <ele>127.5</ele>
        <time>2017-03-23T12:45:29Z</time>
      </trkpt>
      <trkpt lat="48.59548" lon="-3.26997">
        <ele>127.6</ele>
        <time>2017-03-23T12:45:29Z</time>
      </trkpt>
      <trkpt lat="48.5955" lon="-3.26998">
        <ele>127.7</ele>
        <time>2017-03-23T12:45:29Z</time>
      </trkpt>
      <trkpt lat="48.59552" lon="-3.26997">
        <ele>127.8</ele>
        <time>2017-03-23T12:45:29Z</time>
      </trkpt>
      <trkpt lat="48.59554" lon="-3.26997">
        <ele>127.8</ele>
        <time>2017-03-23T12:45:29Z</time>
      </trkpt>
      <trkpt lat="48.59556" lon="-3.26997">
        <ele>127.9</ele>
        <time>2017-03-23T12:45:29Z</time>
      </trkpt>
      <trkpt lat="48.59558" lon="-3.26998">
        <ele>128</ele>
        <time>2017-03-23T12:45:29Z</time>
      </trkpt>
      <trkpt lat="48.5956" lon="-3.26998">
        <ele>128.1</ele>
        <time>2017-03-23T12:45:29Z</time>
      </trkpt>
      <trkpt lat="48.59562" lon="-3.26998">
        <ele>128.1</ele>
        <time>2017-03-23T12:45:29Z</time>
      </trkpt>
      <trkpt lat="48.59564" lon="-3.26999">
        <ele>128.3</ele>
        <time>2017-03-23T12:45:29Z</time>
      </trkpt>
      <trkpt lat="48.59566" lon="-3.26999">
        <ele>128.3</ele>
        <time>2017-03-23T12:45:29Z</time>
      </trkpt>
      <trkpt lat="48.59568" lon="-3.27">
        <ele>128.4</ele>
        <time>2017-03-23T12:45:29Z</time>
      </trkpt>
      <trkpt lat="48.5957" lon="-3.27">
        <ele>128.5</ele>
        <time>2017-03-23T12:45:29Z</time>
      </trkpt>
      <trkpt lat="48.59572" lon="-3.27">
        <ele>128.6</ele>
        <time>2017-03-23T12:45:29Z</time>
      </trkpt>
      <trkpt lat="48.59574" lon="-3.27001">
        <ele>128.7</ele>
        <time>2017-03-23T12:45:29Z</time>
      </trkpt>
      <trkpt lat="48.59576" lon="-3.27001">
        <ele>128.8</ele>
        <time>2017-03-23T12:45:29Z</time>
      </trkpt>
      <trkpt lat="48.59578" lon="-3.27001">
        <ele>128.8</ele>
        <time>2017-03-23T12:45:29Z</time>
      </trkpt>
      <trkpt lat="48.5958" lon="-3.27002">
        <ele>128.9</ele>
        <time>2017-03-23T12:45:29Z</time>
      </trkpt>
      <trkpt lat="48.59582" lon="-3.27002">
        <ele>129</ele>
        <time>2017-03-23T12:45:29Z</time>
      </trkpt>
      <trkpt lat="48.59582" lon="-3.27003">
        <ele>129.1</ele>
        <time>2017-03-23T12:45:29Z</time>
      </trkpt>
    </trkseg>
  </trk>
</gpx>